Вернуться в каталог

DELTA 1 DEB

АктивенSSO
NORAD 21453·DEBRIS·🇺🇸 United States

Запущен Jun 12, 1975 с Vandenberg Space Force Base

Loading…

Ближайшие Пролёты (ближайшие 24 часа)

TLE

СвежийSource: Space-Track

Эпоха: Sep 13, 2026, 15:30 UTC

1 21453U 75052EM  26256.64584867  .00000141  00000-0  39565-3 0  9990
2 21453  99.8782  43.1096 0119707 216.8579 154.4061 13.26968976710507

Отслеживайте DELTA 1 DEB в реальном времени с AllMySat

Download on the App Store